Regional Weather Roundup
Issued by NWS Grand Forks, ND

Home | Current Version | Previous Version | Graphics & Text | Print | Product List | Glossary On
Versions: 1 2 3 4 5 6 7 8 9 10 11 12 13 14 15 16 17 18 19 20 21 22 23 24 25 26 27 28 29 30 31 32 33 34 35 36 37 38 39 40 41 42 43 44 45 46 47 48 49 50
981
ASUS43 KFGF 281210
RWRFGF
PRAIRIE TO PINES  WEATHER ROUNDUP
NATIONAL WEATHER SERVICE EASTERN NORTH DAKOTA/GRAND FORKS ND
700 AM CDT SUN AUG 28 2016

 **SATELLITE DATA USED TO AUGMENT SKY COVER AT AUTOMATED STATIONS**
 *****  WEATHER ACROSS EASTERN NORTH DAKOTA  *****

CITY           SKY/WX    TMP DP  RH WIND       PRES   REMARKS
GRAND FORKS    CLEAR     58  56  93 SE7       29.98S
6HR MIN TEMP:  56; 6HR MAX TEMP:  59;

GRAND FRKS AFB CLOUDY    57  56  97 S6        29.98S
GRAND FRKS NWS   N/A     55 N/A N/A SE9         N/A
DEVILS LAKE    CLEAR     61  60  97 SE9       29.95S
6HR MIN TEMP:  61; 6HR MAX TEMP:  62;

FARGO          CLEAR     63  60  90 SE8       30.00R
WAHPETON ARPT  CLOUDY    61  57  88 SE8       30.03R
$$

 ***** WEATHER ACROSS CENTRAL AND WESTERN NORTH DAKOTA  *****

CITY           SKY/WX    TMP DP  RH WIND       PRES   REMARKS
BISMARCK       CLEAR     57  56  96 NE6       29.89S
6HR MIN TEMP:  56; 6HR MAX TEMP:  58;

MINOT          CLEAR     62  50  64 S3        29.85S
6HR MIN TEMP:  53; 6HR MAX TEMP:  64;

JAMESTOWN      CLOUDY    62  60  93 SE9       29.96R
6HR MIN TEMP:  57; 6HR MAX TEMP:  62;

MINOT AFB      CLEAR     54  48  80 E5        29.85R
GARRISON         N/A     57  53  86 E5        29.88R
WILLISTON      CLEAR     60  49  66 SE3       29.83R
6HR MIN TEMP:  58; 6HR MAX TEMP:  69;

DICKINSON      CLEAR     54  50  86 CALM      29.88R
6HR MIN TEMP:  52; 6HR MAX TEMP:  61;

HETTINGER      CLEAR     49  47  93 CALM      29.91R
6HR MIN TEMP:  48; 6HR MAX TEMP:  65;

$$

 *****  OTHER AIRPORT OBSERVATIONS IN OUR AREA  *****

CITY           SKY/WX    TMP DP  RH WIND       PRES   REMARKS
WALHALLA       NOT AVBL
GRAFTON AIRPOR FAIR      54  54 100 SE6       30.00S FOG
VALLEY CITY AR PTSUNNY   59  59 100 SE10      30.01R
CANDO          NOT AVBL
CAVALIER APRT  FAIR      54  54 100 SE6       29.98R FOG
GWINNER        FAIR      61  61 100 SE5       29.99S
ROLLA          FOG       55  55 100 S7        29.94S VSB<1/4
 ***** THE ABOVE OBSERVATIONS ARE NON NWS ARE NOT QUALITY
       CONTROLLED AND MAY MIS-REPORT RAIN FOR SNOW...
$$

  *****  WEATHER ACROSS NORTHERN MINNESOTA  *****

CITY           SKY/WX    TMP DP  RH WIND       PRES   REMARKS
FLAG ISLAND    CLEAR     63  61  94 CALM      30.05R FOG
WARROAD          N/A     52  48  87 CALM      30.06R FOG
ROSEAU         CLEAR     50  45  81 CALM      30.05R
HALLOCK        CLEAR     57  55  94 SE9       29.99S
THF RVR FALLS  CLEAR     55  54  96 SE7       30.04S
6HR MIN TEMP:  51; 6HR MAX TEMP:  56; 6HR PCP:  0.01;

BAUDETTE       FOG       55  55 100 S7        30.07R VSB 1/4
6HR MIN TEMP:  50; 6HR MAX TEMP:  55;

WASKISH          N/A     59  59 100 S5        30.09R FOG
CROOKSTON      CLEAR     57  57 100 S7        30.01S
STEPHEN NDAWN    N/A     59  57  94 SE6         N/A
GREENBUSH NDAW   N/A     55  55 100 S5          N/A
$$
  *****  WEATHER ACROSS CENTRAL AND WEST MINNESOTA  *****

CITY           SKY/WX    TMP DP  RH WIND       PRES   REMARKS
FOSSTON        CLEAR     57  57 100 SE8       30.06R
BEMIDJI        CLOUDY    58  58 100 S6        30.09S FOG
PARK RAPIDS    FOG       61  59  93 SE8       30.10R VSB 3/4
6HR MIN TEMP:  57; 6HR MAX TEMP:  61;

ELBOW LAKE     FAIR      62  62  97 SE7       30.07R
WADENA         CLOUDY    61  61 100 SE6       30.09R FOG
DETROIT LAKES  CLOUDY    61  59  94 SE10      30.07S FOG
MOORHEAD       CLEAR     63  61  94 SE9       30.02R
FERGUS FALLS   CLOUDY    63  63 100 SE8       30.06S
MORRIS MN      TSTM      64  63  94 CALM      30.07R
STAPLES        CLOUDY    59  59 100 SE3       30.10S FOG
$$
  *****  WEATHER ELSEWHERE ACROSS MINNESOTA  *****

CITY           SKY/WX    TMP DP  RH WIND       PRES   REMARKS
DULUTH         CLOUDY    59  59 100 SW6       30.14R
6HR MIN TEMP:  55; 6HR MAX TEMP:  60;

INTRNTL FALLS  FOG       57  56  96 VRB3      30.11R VSB 1/4
6HR MIN TEMP:  52; 6HR MAX TEMP:  57;

ELY            FOG       52  50  93 CALM      30.14S VSB 1/4
CLOQUET        CLOUDY    59  57  94 S3        30.15R FOG
WHEATON        CLOUDY    63  61  94 SE13      30.05S
BRAINERD       FOG       60  60 100 SE5       30.12R VSB 1/4
6HR MIN TEMP:  58; 6HR MAX TEMP:  60;

HIBBING        FOG       55  55 100 CALM      30.14R VSB 1/4
6HR MIN TEMP:  48; 6HR MAX TEMP:  55;

ALEXANDRIA     CLOUDY    63  62  97 NE6       30.10R
6HR MIN TEMP:  58; 6HR MAX TEMP:  63; 6HR PCP:  0.05;

SAINT CLOUD    FOG       60  60 100 CALM      30.12S VSB 1/4
6HR MIN TEMP:  60; 6HR MAX TEMP:  61;

MINNEAPOLIS    FOG       62  60  93 SE5       30.14R VSB 1/4
6HR MIN TEMP:  61; 6HR MAX TEMP:  65;

$$

  *****  WEATHER ACROSS SOUTH DAKOTA  *****

CITY           SKY/WX    TMP DP  RH WIND       PRES   REMARKS
SIOUX FALLS    PTCLDY    65  64  97 E5        30.08R
6HR MIN TEMP:  63; 6HR MAX TEMP:  70;

BROOKINGS      CLEAR     63  62  97 SE8       30.07R
WATERTOWN      PTCLDY    66  59  78 SE10      30.05R
6HR MIN TEMP:  66; 6HR MAX TEMP:  69;

HURON          CLEAR     65  63  93 SE12      29.98R
6HR MIN TEMP:  65; 6HR MAX TEMP:  70;

SISSETON         N/A     60  58  92 SE6       30.02R
ABERDEEN       CLEAR     66  63  90 SE13      29.97R
6HR MIN TEMP:  65; 6HR MAX TEMP:  68;

MITCHELL       CLEAR     66  64  93 SE9       30.01R
PIERRE         CLEAR     63  61  93 SE8       29.91R
6HR MIN TEMP:  62; 6HR MAX TEMP:  72;

MOBRIDGE       CLEAR     68  61  78 SE15      29.88R
RAPID CITY     CLEAR     50  47  89 CALM      29.93S
6HR MIN TEMP:  50; 6HR MAX TEMP:  63;

$$

  *****  SOME WEATHER IN NEARBY STATES *****

CITY           SKY/WX    TMP DP  RH WIND       PRES   REMARKS
GLASGOW MT     CLOUDY    60  44  55 E7        29.78R
6HR MIN TEMP:  60; 6HR MAX TEMP:  64;

GREAT FALLS MT CLOUDY    68  40  35 SW13      29.90R
6HR MIN TEMP:  62; 6HR MAX TEMP:  72; 6HR PCP: TRACE;

CHEYENNE WY    CLOUDY    52  32  46 W9        30.20S
6HR MIN TEMP:  51; 6HR MAX TEMP:  60;

SCOTTSBLUFF NE CLEAR     56  53  90 E6        30.07S
6HR MIN TEMP:  55; 6HR MAX TEMP:  64;

OMAHA NE       MOCLDY    69  65  86 SE5       30.09R
6HR MIN TEMP:  68; 6HR MAX TEMP:  72;

DES MOINES IA  PTCLDY    69  67  93 E6        30.11R FOG
6HR MIN TEMP:  69; 6HR MAX TEMP:  72;

DAVENPORT IA   PTCLDY    66  65  96 NE3       30.15R
6HR MIN TEMP:  64; 6HR MAX TEMP:  68;

CHICAGO IL     PTCLDY    72  69  90 N3        30.16R
6HR MIN TEMP:  71; 6HR MAX TEMP:  75;

EAU CLAIRE WI  CLOUDY    63  62  97 CALM      30.15S FOG
6HR MIN TEMP:  61; 6HR MAX TEMP:  64;

LA CROSSE WI   CLOUDY    67  67 100 SE5       30.15R FOG
6HR MIN TEMP:  67; 6HR MAX TEMP:  68;

$$

  *****  SOME NATIONAL WEATHER *****

CITY           SKY/WX    TMP DP  RH WIND       PRES   REMARKS
LA GUARDIA NY  PTSUNNY   76  69  79 E6        30.26R
6HR MIN TEMP:  74; 6HR MAX TEMP:  77;

RALEIGH NC     CLOUDY    72  70  93 NE7       30.19R FOG
6HR MIN TEMP:  71; 6HR MAX TEMP:  76;

ATLANTA GA     PTCLDY    74  71  91 E10       30.16R
6HR MIN TEMP:  74; 6HR MAX TEMP:  80;

NEW ORLEANS LA PTCLDY    83  78  85 NE8       29.99R HX  93
6HR MIN TEMP:  81; 6HR MAX TEMP:  83;

OKLAHOMA CITY  CLOUDY    71  68  90 S3        30.09R
6HR MIN TEMP:  69; 6HR MAX TEMP:  74;

ALBUQUERQUE NM MOCLDY    59  51  75 N7        30.24R
6HR MIN TEMP:  56; 6HR MAX TEMP:  64;

SALT LAKE CITY CLEAR     69  42  37 SE13      30.10R
6HR MIN TEMP:  67; 6HR MAX TEMP:  73;

LOS ANGELES CA CLEAR     63  59  87 E3        29.99R
6HR MIN TEMP:  63; 6HR MAX TEMP:  66;

BOISE ID       CLEAR    C1F1C2F2C3F3C4F4C5F5C6F6C7F7C8F8C9F9CaFaCbFbCcFcCd!



USA.gov is the U.S. government's official web portal to all federal, state and local government web resources and services.